Regional Weather Roundup
Issued by NWS Nashville, TN

Home | Current Version | Previous Version | Text Only | Print | Product List | Glossary On
Versions: 1 2 3 4 5 6 7 8 9 10 11 12 13 14 15 16 17 18 19 20 21 22 23 24 25 26 27 28 29 30 31 32 33 34 35 36 37 38 39 40 41 42 43 44 45 46 47 48 49 50
000
ASUS44 KOHX 230416
RWROHX

MIDDLE TENNESSEE HOURLY WEATHER ROUNDUP
NATIONAL WEATHER SERVICE NASHVILLE TN
1100 PM CDT FRI MAY 22 2015

NOTE: "FAIR" INDICATES FEW OR NO CLOUDS BELOW 12,000 FEET WITH
NO SIGNIFICANT WEATHER AND/OR OBSTRUCTIONS TO VISIBILITY.

* THESE REPORTS ARE NOT UNDER NWS QUALITY CONTROL AND MAY NOT
  REPORT WEATHER SUCH AS PRECIPITATION AND FOG.


TNZ005>011-023>034-057-059-062>066-078-080-230500
...NORTHERN MIDDLE TENNESSEE...

CITY           SKY/WX    TMP DP  RH WIND       PRES   REMARKS
CASTALIAN SPRG   N/A     55  50  82 CALM      30.29R
CLARKSVILLE    MOCLDY    60  50  69 CALM      30.28R
CROSSVILLE     MOCLDY    54  46  74 CALM      30.32S
JOELTON*         N/A     57  52  82 CALM      30.23S
NASHVILLE      MOCLDY    63  48  58 NE3       30.28S
PORTLAND       PTCLDY    55  50  82 MISG      30.29S
ROCKWOOD       MOCLDY    54  46  74 NE3       30.31R
SMYRNA         PTCLDY    56  51  83 CALM      30.28F
SPARTA         CLEAR     52  48  87 CALM      30.30R
$$
TNZ056-058-060-061-075>077-079-093>097-230500
...SOUTHERN MIDDLE TENNESSEE...

CITY           SKY/WX    TMP DP  RH WIND       PRES   REMARKS
COLUMBIA       CLEAR     52  50  93 CALM      30.26R
LEWISBURG      PTCLDY    50  47  89 CALM      30.27S
MANCHESTER*      N/A     52  39  62 CALM      30.31S
MCMINNVILLE    CLEAR     52  48  87 CALM      30.29S
SHELBYVILLE    CLEAR     55  48  76 E3        30.28S
TULLAHOMA      CLEAR     54  45  71 CALM      30.29S
WINCHESTER     CLEAR     54  50  87 CALM      30.28F
$$


...KEY TO REMARKS...
VSB - VISIBILITY IN MILES
WCI - WIND CHILL INDEX
HX  - HEAT INDEX








USA.gov is the U.S. government's official web portal to all federal, state and local government web resources and services.